| time (UTC) | temp F | wind direction | speed knots | gust knots | rain 1hr in | rain 24hr in | rain mn in | humidity % | barometer mb |
| 20260506051003 | 65 | 262 | 0.9 | 1.7 | 0.00 | 0.00 | 0.00 | 73 | 1014.8 |
| 20260506050503 | 65 | 286 | 0.9 | 2.6 | 0.00 | 0.00 | 0.00 | 73 | 1015.0 |
| 20260506044503 | 65 | 177 | 0.9 | 4.3 | 0.00 | 0.00 | 0.00 | 73 | 1014.9 |
| 20260506043503 | 65 | 203 | 1.7 | 2.6 | 0.00 | 0.00 | 0.00 | 72 | 1014.9 |
| 20260506043003 | 65 | 254 | 1.7 | 1.7 | 0.00 | 0.00 | 0.00 | 72 | 1014.9 |
| 20260506042503 | 65 | 142 | 1.7 | 1.7 | 0.00 | 0.00 | 0.00 | 72 | 1015.0 |
| 20260506042003 | 66 | 223 | 0.9 | 2.6 | 0.00 | 0.00 | 0.00 | 71 | 1015.0 |
| 20260506041503 | 66 | 154 | 1.7 | 2.6 | 0.00 | 0.00 | 0.00 | 71 | 1014.9 |
| 20260506041003 | 66 | 258 | 0.9 | 2.6 | 0.00 | 0.00 | 0.00 | 70 | 1015.0 |
| 20260506040504 | 66 | 255 | 0.9 | 2.6 | 0.00 | 0.00 | 0.00 | 70 | 1015.0 |
| 20260506035503 | 66 | 209 | 1.7 | 2.6 | 0.00 | 0.00 | 0.00 | 68 | 1014.9 |
| 20260506035004 | 66 | 219 | 0.9 | 2.6 | 0.00 | 0.00 | 0.00 | 68 | 1015.0 |
| 20260506034503 | 67 | 281 | 1.7 | 2.6 | 0.00 | 0.00 | 0.00 | 67 | 1015.0 |
| 20260506034003 | 67 | 233 | 1.7 | 6.1 | 0.00 | 0.00 | 0.00 | 67 | 1015.0 |
| 20260506033503 | 67 | 236 | 2.6 | 5.2 | 0.00 | 0.00 | 0.00 | 66 | 1015.0 |
| 20260506033004 | 67 | 69 | 0.9 | 2.6 | 0.00 | 0.00 | 0.00 | 66 | 1015.0 |
| 20260506032503 | 67 | 180 | 0.9 | 2.6 | 0.00 | 0.00 | 0.00 | 65 | 1015.0 |
| 20260506031503 | 68 | 223 | 0.9 | 2.6 | 0.00 | 0.00 | 0.00 | 64 | 1015.1 |
| 20260506030503 | 68 | 227 | 0.9 | 2.6 | 0.00 | 0.00 | 0.00 | 63 | 1015.1 |
| 20260506030003 | 68 | 254 | 2.6 | 5.2 | 0.00 | 0.00 | 0.00 | 63 | 1015.0 |
| 20260506025503 | 68 | 197 | 2.6 | 6.1 | 0.00 | 0.00 | 0.00 | 62 | 1015.1 |
| 20260506025004 | 69 | 149 | 1.7 | 2.6 | 0.00 | 0.00 | 0.00 | 62 | 1015.1 |
| 20260506024503 | 69 | 183 | 1.7 | 5.2 | 0.00 | 0.00 | 0.00 | 61 | 1015.1 |
| 20260506024003 | 69 | 252 | 0.9 | 1.7 | 0.00 | 0.00 | 0.00 | 61 | 1015.0 |
| 20260506023503 | 69 | 302 | 0.9 | 2.6 | 0.00 | 0.00 | 0.00 | 60 | 1015.0 |
| 20260506023003 | 69 | 204 | 1.7 | 2.6 | 0.00 | 0.00 | 0.00 | 60 | 1014.9 |
| 20260506022504 | 69 | 260 | 1.7 | 4.3 | 0.00 | 0.00 | 0.00 | 60 | 1015.0 |
| 20260506022018 | 70 | 281 | 0.9 | 2.6 | 0.00 | 0.00 | 0.00 | 59 | 1015.0 |
| 20260506021503 | 70 | 144 | 1.7 | 2.6 | 0.00 | 0.00 | 0.00 | 58 | 1014.9 |
| 20260506021004 | 70 | 182 | 0.9 | 2.6 | 0.00 | 0.00 | 0.00 | 58 | 1014.8 |
| 20260506020503 | 70 | 184 | 1.7 | 4.3 | 0.00 | 0.00 | 0.00 | 58 | 1014.8 |
| 20260506020004 | 70 | 171 | 0.9 | 4.3 | 0.00 | 0.00 | 0.00 | 57 | 1014.7 |
| 20260506015505 | 71 | 197 | 1.7 | 4.3 | 0.00 | 0.00 | 0.00 | 57 | 1014.7 |
| 20260506015003 | 71 | 243 | 1.7 | 4.3 | 0.00 | 0.00 | 0.00 | 56 | 1014.6 |
| 20260506014503 | 71 | 221 | 1.7 | 5.2 | 0.00 | 0.00 | 0.00 | 56 | 1014.5 |
| 20260506014003 | 71 | 347 | 1.7 | 4.3 | 0.00 | 0.00 | 0.00 | 55 | 1014.4 |
| 20260506013503 | 71 | 177 | 1.7 | 5.2 | 0.00 | 0.00 | 0.00 | 55 | 1014.4 |
| 20260506013003 | 71 | 273 | 1.7 | 6.1 | 0.00 | 0.00 | 0.00 | 55 | 1014.3 |
| 20260506012504 | 72 | 245 | 0.9 | 2.6 | 0.00 | 0.00 | 0.00 | 55 | 1014.2 |
| 20260506012003 | 72 | 240 | 0.9 | 4.3 | 0.00 | 0.00 | 0.00 | 54 | 1014.2 |
| 20260506011003 | 72 | 310 | 1.7 | 6.1 | 0.00 | 0.00 | 0.00 | 54 | 1014.1 |
| 20260506010503 | 72 | 330 | 1.7 | 2.6 | 0.00 | 0.00 | 0.00 | 54 | 1014.0 |
| 20260506010004 | 72 | 279 | 0.9 | 2.6 | 0.00 | 0.00 | 0.00 | 54 | 1013.9 |
| 20260506005003 | 73 | 267 | 0.9 | 2.6 | 0.00 | 0.00 | 0.00 | 53 | 1013.9 |
| 20260506004504 | 73 | 186 | 1.7 | 5.2 | 0.00 | 0.00 | 0.00 | 52 | 1013.7 |
| 20260506004003 | 73 | 209 | 0.9 | 4.3 | 0.00 | 0.00 | 0.00 | 52 | 1013.7 |
| 20260506003503 | 73 | 345 | 0.9 | 4.3 | 0.00 | 0.00 | 0.00 | 52 | 1013.6 |
| 20260506003003 | 73 | 289 | 0.0 | 2.6 | 0.00 | 0.00 | 0.00 | 51 | 1013.6 |
| 20260506002503 | 73 | 157 | 0.9 | 2.6 | 0.00 | 0.00 | 0.00 | 51 | 1013.5 |
| 20260506002003 | 73 | 118 | 0.9 | 2.6 | 0.00 | 0.00 | 0.00 | 50 | 1013.5 |
| 20260506001503 | 74 | 316 | 0.9 | 4.3 | 0.00 | 0.00 | 0.00 | 50 | 1013.4 |
| 20260506001003 | 74 | 231 | 0.9 | 1.7 | 0.00 | 0.00 | 0.00 | 49 | 1013.4 |
| 20260506000003 | 74 | 230 | 0.9 | 1.7 | 0.00 | 0.00 | 0.00 | 48 | 1013.3 |
| 20260505235503 | 75 | 210 | 0.9 | 1.7 | 0.00 | 0.00 | 0.00 | 47 | 1013.3 |
| 20260505235004 | 75 | 167 | 0.9 | 2.6 | 0.00 | 0.00 | 0.00 | 47 | 1013.3 |
| 20260505234504 | 75 | 211 | 1.7 | 2.6 | 0.00 | 0.00 | 0.00 | 47 | 1013.2 |
| 20260505234003 | 75 | 141 | 1.7 | 2.6 | 0.00 | 0.00 | 0.00 | 47 | 1013.3 |
| 20260505233503 | 76 | 201 | 0.9 | 2.6 | 0.00 | 0.00 | 0.00 | 47 | 1013.2 |
| 20260505233004 | 76 | 242 | 0.9 | 4.3 | 0.00 | 0.00 | 0.00 | 47 | 1013.2 |
| 20260505232503 | 76 | 249 | 0.9 | 2.6 | 0.00 | 0.00 | 0.00 | 46 | 1013.1 |
| 20260505232003 | 76 | 173 | 1.7 | 4.3 | 0.00 | 0.00 | 0.00 | 46 | 1013.1 |
| 20260505231504 | 76 | 204 | 0.9 | 4.3 | 0.00 | 0.00 | 0.00 | 46 | 1013.1 |
| 20260505230503 | 76 | 258 | 0.9 | 4.3 | 0.00 | 0.00 | 0.00 | 46 | 1013.1 |
| 20260505230003 | 76 | 216 | 0.9 | 2.6 | 0.00 | 0.00 | 0.00 | 45 | 1013.1 |
| 20260505225503 | 76 | 315 | 0.9 | 4.3 | 0.00 | 0.00 | 0.00 | 45 | 1013.1 |
| 20260505224503 | 77 | 238 | 1.7 | 4.3 | 0.00 | 0.00 | 0.00 | 44 | 1013.3 |
| 20260505224004 | 77 | 198 | 0.9 | 2.6 | 0.00 | 0.00 | 0.00 | 44 | 1013.3 |
| 20260505223004 | 78 | 147 | 1.7 | 4.3 | 0.00 | 0.00 | 0.00 | 43 | 1013.4 |
| 20260505222503 | 78 | 177 | 2.6 | 5.2 | 0.00 | 0.00 | 0.00 | 42 | 1013.4 |
| 20260505222003 | 78 | 258 | 1.7 | 4.3 | 0.00 | 0.00 | 0.00 | 42 | 1013.4 |
| 20260505221503 | 78 | 205 | 1.7 | 5.2 | 0.00 | 0.00 | 0.00 | 42 | 1013.4 |
| 20260505221004 | 78 | 263 | 1.7 | 4.3 | 0.00 | 0.00 | 0.00 | 41 | 1013.5 |
| 20260505220003 | 79 | 278 | 0.9 | 4.3 | 0.00 | 0.00 | 0.00 | 42 | 1013.5 |
| 20260505215503 | 79 | 158 | 1.7 | 5.2 | 0.00 | 0.00 | 0.00 | 40 | 1013.5 |
| 20260505215004 | 79 | 125 | 1.7 | 4.3 | 0.00 | 0.00 | 0.00 | 41 | 1013.6 |
| 20260505214006 | 79 | 251 | 1.7 | 5.2 | 0.00 | 0.00 | 0.00 | 40 | 1013.4 |
| 20260505213503 | 79 | 186 | 1.7 | 4.3 | 0.00 | 0.00 | 0.00 | 40 | 1013.5 |
| 20260505212503 | 79 | 225 | 1.7 | 4.3 | 0.00 | 0.00 | 0.00 | 40 | 1013.5 |
| 20260505212003 | 79 | 208 | 1.7 | 2.6 | 0.00 | 0.00 | 0.00 | 40 | 1013.5 |
| 20260505211504 | 79 | 169 | 2.6 | 4.3 | 0.00 | 0.00 | 0.00 | 39 | 1013.5 |
| 20260505211003 | 79 | 189 | 1.7 | 7.0 | 0.00 | 0.00 | 0.00 | 40 | 1013.6 |
| 20260505210503 | 79 | 223 | 1.7 | 7.0 | 0.00 | 0.00 | 0.00 | 39 | 1013.5 |
| 20260505210003 | 78 | 211 | 0.9 | 5.2 | 0.00 | 0.00 | 0.00 | 40 | 1013.5 |
| 20260505205003 | 79 | 257 | 0.9 | 2.6 | 0.00 | 0.00 | 0.00 | 39 | 1013.7 |
| 20260505204504 | 79 | 251 | 1.7 | 5.2 | 0.00 | 0.00 | 0.00 | 39 | 1013.7 |
| 20260505204003 | 79 | 219 | 0.9 | 2.6 | 0.00 | 0.00 | 0.00 | 40 | 1013.7 |
| 20260505203503 | 79 | 202 | 0.9 | 7.0 | 0.00 | 0.00 | 0.00 | 39 | 1013.8 |
| 20260505203003 | 80 | 178 | 1.7 | 4.3 | 0.00 | 0.00 | 0.00 | 38 | 1013.7 |
| 20260505202504 | 80 | 219 | 2.6 | 5.2 | 0.00 | 0.00 | 0.00 | 38 | 1013.7 |
| 20260505202004 | 80 | 182 | 2.6 | 5.2 | 0.00 | 0.00 | 0.00 | 38 | 1013.7 |
| 20260505201503 | 81 | 142 | 1.7 | 5.2 | 0.00 | 0.00 | 0.00 | 38 | 1013.6 |
| 20260505201004 | 80 | 180 | 0.9 | 4.3 | 0.00 | 0.00 | 0.00 | 39 | 1013.6 |
| 20260505200503 | 80 | 259 | 1.7 | 4.3 | 0.00 | 0.00 | 0.00 | 39 | 1013.7 |
| 20260505200004 | 79 | 171 | 1.7 | 2.6 | 0.00 | 0.00 | 0.00 | 40 | 1013.7 |
| 20260505195503 | 79 | 184 | 1.7 | 5.2 | 0.00 | 0.00 | 0.00 | 39 | 1014.0 |
| 20260505195003 | 79 | 130 | 1.7 | 4.3 | 0.00 | 0.00 | 0.00 | 41 | 1013.9 |
| 20260505194504 | 79 | 165 | 1.7 | 6.1 | 0.00 | 0.00 | 0.00 | 40 | 1014.1 |
| 20260505194003 | 80 | 211 | 1.7 | 5.2 | 0.00 | 0.00 | 0.00 | 41 | 1014.2 |
| 20260505193504 | 80 | 225 | 1.7 | 5.2 | 0.00 | 0.00 | 0.00 | 39 | 1014.2 |
| 20260505193003 | 80 | 260 | 0.9 | 4.3 | 0.00 | 0.00 | 0.00 | 40 | 1014.4 |
| 20260505192004 | 79 | 203 | 0.9 | 2.6 | 0.00 | 0.00 | 0.00 | 43 | 1014.5 |
| 20260505191504 | 79 | 201 | 1.7 | 4.3 | 0.00 | 0.00 | 0.00 | 41 | 1014.5 |
| 20260505191004 | 80 | 158 | 2.6 | 7.8 | 0.00 | 0.00 | 0.00 | 39 | 1014.5 |
| 20260505190503 | 79 | 263 | 1.7 | 4.3 | 0.00 | 0.00 | 0.00 | 41 | 1014.6 |
| 20260505185503 | 79 | 288 | 1.7 | 4.3 | 0.00 | 0.00 | 0.00 | 42 | 1014.9 |
| 20260505185003 | 79 | 195 | 0.9 | 2.6 | 0.00 | 0.00 | 0.00 | 41 | 1014.9 |
| 20260505183503 | 79 | 264 | 0.9 | 2.6 | 0.00 | 0.00 | 0.00 | 40 | 1015.0 |
| 20260505183003 | 79 | 273 | 1.7 | 2.6 | 0.00 | 0.00 | 0.00 | 40 | 1015.3 |
| 20260505182503 | 79 | 245 | 1.7 | 4.3 | 0.00 | 0.00 | 0.00 | 40 | 1015.3 |
| 20260505182003 | 80 | 279 | 0.9 | 5.2 | 0.00 | 0.00 | 0.00 | 38 | 1015.4 |
| 20260505181503 | 80 | 246 | 1.7 | 7.0 | 0.00 | 0.00 | 0.00 | 39 | 1015.3 |
| 20260505181003 | 80 | 192 | 1.7 | 2.6 | 0.00 | 0.00 | 0.00 | 38 | 1015.2 |
| 20260505175504 | 80 | 161 | 0.9 | 5.2 | 0.00 | 0.00 | 0.00 | 39 | 1015.5 |
| 20260505175004 | 80 | 202 | 1.7 | 5.2 | 0.00 | 0.00 | 0.00 | 38 | 1015.4 |
| 20260505174503 | 80 | 107 | 0.9 | 4.3 | 0.00 | 0.00 | 0.00 | 39 | 1015.4 |
| 20260505174003 | 79 | 158 | 0.9 | 2.6 | 0.00 | 0.00 | 0.00 | 40 | 1015.4 |
| 20260505173504 | 79 | 283 | 0.9 | 2.6 | 0.00 | 0.00 | 0.00 | 42 | 1015.4 |
| 20260505173003 | 78 | 44 | 1.7 | 5.2 | 0.00 | 0.00 | 0.00 | 40 | 1015.5 |
| 20260505172503 | 78 | 183 | 1.7 | 5.2 | 0.00 | 0.00 | 0.00 | 40 | 1015.5 |
| 20260505172003 | 79 | 164 | 1.7 | 5.2 | 0.00 | 0.00 | 0.00 | 41 | 1015.6 |
| 20260505171503 | 79 | 354 | 2.6 | 5.2 | 0.00 | 0.00 | 0.00 | 41 | 1015.5 |
| 20260505171003 | 79 | 208 | 1.7 | 4.3 | 0.00 | 0.00 | 0.00 | 41 | 1015.6 |
| 20260505170503 | 79 | 51 | 1.7 | 4.3 | 0.00 | 0.00 | 0.00 | 41 | 1015.6 |
| 20260505170003 | 79 | 197 | 0.9 | 2.6 | 0.00 | 0.00 | 0.00 | 40 | 1015.7 |
| 20260505165503 | 78 | 285 | 1.7 | 2.6 | 0.00 | 0.00 | 0.00 | 40 | 1015.8 |
| 20260505165004 | 78 | 121 | 1.7 | 5.2 | 0.00 | 0.00 | 0.00 | 41 | 1015.8 |
| 20260505163503 | 77 | 228 | 0.9 | 5.2 | 0.00 | 0.00 | 0.00 | 45 | 1015.9 |
| 20260505162504 | 77 | 262 | 1.7 | 4.3 | 0.00 | 0.00 | 0.00 | 41 | 1016.0 |
| 20260505160504 | 76 | 151 | 1.7 | 5.2 | 0.00 | 0.00 | 0.00 | 44 | 1016.1 |
| 20260505153003 | 74 | 170 | 0.9 | 4.3 | 0.00 | 0.00 | 0.00 | 49 | 1016.5 |
| 20260505152503 | 74 | 276 | 0.9 | 2.6 | 0.00 | 0.00 | 0.00 | 50 | 1016.5 |
| 20260505151003 | 73 | 262 | 1.7 | 4.3 | 0.00 | 0.00 | 0.00 | 50 | 1016.6 |
| 20260505150503 | 72 | 176 | 0.9 | 4.3 | 0.00 | 0.00 | 0.00 | 51 | 1016.5 |
| 20260505140503 | 70 | 160 | 0.9 | 4.3 | 0.00 | 0.00 | 0.00 | 56 | 1016.3 |
| 20260505125003 | 63 | 238 | 0.9 | 2.6 | 0.00 | 0.00 | 0.00 | 67 | 1016.6 |
| 20260505124504 | 63 | 167 | 0.9 | 2.6 | 0.00 | 0.00 | 0.00 | 68 | 1016.6 |
| 20260505124004 | 62 | 308 | 0.0 | 0.9 | 0.00 | 0.00 | 0.00 | 68 | 1016.6 |
| 20260505123503 | 62 | 36 | 0.9 | 1.7 | 0.00 | 0.00 | 0.00 | 69 | 1016.6 |
| 20260505122503 | 61 | 160 | 1.7 | 5.2 | 0.00 | 0.00 | 0.00 | 70 | 1016.7 |
| 20260505122004 | 61 | 170 | 0.9 | 5.2 | 0.00 | 0.00 | 0.00 | 70 | 1016.7 |
| 20260505121504 | 61 | 183 | 0.0 | 1.7 | 0.00 | 0.00 | 0.00 | 70 | 1016.7 |
| 20260505121004 | 60 | 164 | 0.9 | 2.6 | 0.00 | 0.00 | 0.00 | 71 | 1016.6 |
| 20260505120505 | 60 | 299 | 0.9 | 1.7 | 0.00 | 0.00 | 0.00 | 71 | 1016.6 |
| 20260505120004 | 60 | 157 | 0.9 | 2.6 | 0.00 | 0.00 | 0.00 | 72 | 1016.5 |
| 20260505115503 | 60 | 173 | 0.9 | 2.6 | 0.00 | 0.00 | 0.00 | 71 | 1016.5 |
| 20260505115004 | 60 | 148 | 1.7 | 4.3 | 0.00 | 0.00 | 0.00 | 72 | 1016.5 |
| 20260505114503 | 59 | 211 | 0.9 | 2.6 | 0.00 | 0.00 | 0.00 | 72 | 1016.5 |
| 20260505114004 | 59 | 358 | 0.9 | 2.6 | 0.00 | 0.00 | 0.00 | 73 | 1016.5 |
| 20260505113503 | 59 | 187 | 0.9 | 2.6 | 0.00 | 0.00 | 0.00 | 73 | 1016.5 |
| 20260505113003 | 59 | 163 | 0.0 | 1.7 | 0.00 | 0.00 | 0.00 | 73 | 1016.4 |
| 20260505112503 | 59 | 169 | 0.9 | 2.6 | 0.00 | 0.00 | 0.00 | 73 | 1016.4 |
| 20260505112004 | 58 | 159 | 0.9 | 1.7 | 0.00 | 0.00 | 0.00 | 74 | 1016.4 |
| 20260505111503 | 58 | 206 | 0.9 | 2.6 | 0.00 | 0.00 | 0.00 | 74 | 1016.3 |
| 20260505111004 | 58 | 131 | 0.0 | 1.7 | 0.00 | 0.00 | 0.00 | 74 | 1016.2 |
| 20260505110504 | 57 | 182 | 0.9 | 1.7 | 0.00 | 0.00 | 0.00 | 75 | 1016.1 |
| 20260505102004 | 53 | 160 | 0.0 | 0.0 | 0.00 | 0.00 | 0.00 | 84 | 1015.8 |
| 20260505101504 | 52 | 160 | 0.9 | 1.7 | 0.00 | 0.00 | 0.00 | 85 | 1015.7 |
| 20260505101004 | 52 | 291 | 0.9 | 0.9 | 0.00 | 0.00 | 0.00 | 85 | 1015.7 |
| 20260505100504 | 52 | 165 | 0.9 | 0.9 | 0.00 | 0.00 | 0.00 | 85 | 1015.7 |
| 20260505100004 | 52 | 173 | 0.0 | 0.9 | 0.00 | 0.00 | 0.00 | 85 | 1015.7 |
| 20260505095504 | 52 | 172 | 0.0 | 0.9 | 0.00 | 0.00 | 0.00 | 85 | 1015.6 |
| 20260505095004 | 52 | 103 | 0.0 | 0.0 | 0.00 | 0.00 | 0.00 | 85 | 1015.6 |
| 20260505094503 | 52 | 218 | 0.0 | 0.9 | 0.00 | 0.00 | 0.00 | 84 | 1015.6 |
| 20260505094003 | 53 | 293 | 0.0 | 0.9 | 0.00 | 0.00 | 0.00 | 84 | 1015.5 |
| 20260505093003 | 53 | 160 | 0.0 | 0.9 | 0.00 | 0.00 | 0.00 | 83 | 1015.5 |
| 20260505092503 | 53 | 282 | 0.0 | 0.9 | 0.00 | 0.00 | 0.00 | 82 | 1015.5 |
| 20260505092004 | 53 | 296 | 0.0 | 0.0 | 0.00 | 0.00 | 0.00 | 82 | 1015.5 |
| 20260505091504 | 54 | 296 | 0.0 | 0.9 | 0.00 | 0.00 | 0.00 | 81 | 1015.4 |
| 20260505090504 | 54 | 196 | 0.0 | 0.0 | 0.00 | 0.00 | 0.00 | 80 | 1015.4 |
| 20260505085503 | 55 | 196 | 0.0 | 0.0 | 0.00 | 0.00 | 0.00 | 79 | 1015.5 |
| 20260505085003 | 55 | 196 | 0.0 | 0.0 | 0.00 | 0.00 | 0.00 | 78 | 1015.4 |
| 20260505084503 | 56 | 196 | 0.0 | 0.9 | 0.00 | 0.00 | 0.00 | 77 | 1015.3 |
| 20260505084003 | 56 | 175 | 0.0 | 0.0 | 0.00 | 0.00 | 0.00 | 76 | 1015.3 |
| 20260505083503 | 56 | 193 | 0.0 | 0.0 | 0.00 | 0.00 | 0.00 | 75 | 1015.3 |
| 20260505083004 | 57 | 193 | 0.0 | 0.0 | 0.00 | 0.00 | 0.00 | 74 | 1015.3 |
| 20260505082503 | 57 | 193 | 0.0 | 0.0 | 0.00 | 0.00 | 0.00 | 74 | 1015.3 |
| 20260505082004 | 57 | 193 | 0.0 | 0.0 | 0.00 | 0.00 | 0.00 | 73 | 1015.3 |
| 20260505081004 | 58 | 193 | 0.0 | 0.0 | 0.00 | 0.00 | 0.00 | 72 | 1015.2 |
| 20260505080004 | 58 | 190 | 0.0 | 1.7 | 0.00 | 0.00 | 0.00 | 70 | 1015.1 |
| 20260505074504 | 59 | 207 | 0.0 | 0.0 | 0.00 | 0.00 | 0.00 | 69 | 1015.0 |
| 20260505073503 | 59 | 11 | 0.0 | 1.7 | 0.00 | 0.00 | 0.00 | 69 | 1014.9 |
| 20260505073003 | 59 | 294 | 0.9 | 1.7 | 0.00 | 0.00 | 0.00 | 69 | 1014.9 |
| 20260505072503 | 59 | 5 | 0.0 | 0.9 | 0.00 | 0.00 | 0.00 | 69 | 1014.9 |
| 20260505072005 | 59 | 281 | 0.9 | 1.7 | 0.00 | 0.00 | 0.00 | 69 | 1014.9 |
| 20260505070503 | 60 | 194 | 0.0 | 0.0 | 0.00 | 0.00 | 0.00 | 68 | 1014.9 |
| 20260505065504 | 60 | 231 | 0.0 | 1.7 | 0.00 | 0.00 | 0.00 | 67 | 1014.9 |
| 20260505065004 | 60 | 221 | 0.9 | 1.7 | 0.00 | 0.00 | 0.00 | 67 | 1014.9 |
| 20260505064504 | 60 | 180 | 0.0 | 0.9 | 0.00 | 0.00 | 0.00 | 67 | 1014.9 |
| 20260505064004 | 60 | 224 | 0.9 | 1.7 | 0.00 | 0.00 | 0.00 | 67 | 1014.9 |
| 20260505063503 | 60 | 230 | 0.9 | 1.7 | 0.00 | 0.00 | 0.00 | 67 | 1014.9 |
| 20260505062504 | 61 | 154 | 0.0 | 0.0 | 0.00 | 0.00 | 0.00 | 67 | 1014.8 |
| 20260505061503 | 61 | 228 | 0.0 | 1.7 | 0.00 | 0.00 | 0.00 | 66 | 1014.8 |
| 20260505061003 | 61 | 169 | 0.9 | 1.7 | 0.00 | 0.00 | 0.00 | 66 | 1014.8 |
| 20260505060503 | 61 | 237 | 0.9 | 1.7 | 0.00 | 0.00 | 0.00 | 66 | 1014.8 |
| 20260505060003 | 61 | 184 | 0.9 | 0.9 | 0.00 | 0.00 | 0.00 | 66 | 1014.9 |
| 20260505055004 | 62 | 236 | 0.0 | 1.7 | 0.00 | 0.00 | 0.00 | 65 | 1014.8 |
| 20260505054504 | 62 | 231 | 0.0 | 1.7 | 0.00 | 0.00 | 0.00 | 65 | 1014.8 |
| 20260505054004 | 62 | 162 | 0.9 | 2.6 | 0.00 | 0.00 | 0.00 | 65 | 1014.8 |
| 20260505053504 | 62 | 187 | 0.9 | 1.7 | 0.00 | 0.00 | 0.00 | 65 | 1014.9 |
| 20260505053004 | 62 | 259 | 0.9 | 1.7 | 0.00 | 0.00 | 0.00 | 65 | 1014.9 |
| 20260505052504 | 62 | 201 | 1.7 | 1.7 | 0.00 | 0.00 | 0.00 | 64 | 1015.0 |
| 20260505052004 | 62 | 182 | 0.9 | 1.7 | 0.00 | 0.00 | 0.00 | 65 | 1015.0 |